Location: Hohe Wand Kleine Kanzel
(47.8330°N, 16.0170°E)
Time: 14:32:44
(UTC+02:00)

Max Valier Satellite - Visible Passes

Search period start: 20 September 2021 00:00
Search period end: 30 September 2021 00:00
Orbit: 486 x 502 km, 97.2° (Epoch: 19 September)

Date Brightness Start Highest point End Pass type
(mag) Time Alt. Az. Time Alt. Az. Time Alt. Az.
20 Sep ? 19:31:23 10° ENE 19:31:39 10° ENE 19:31:53 10° NE visible
20 Sep ? 21:04:17 69° S 21:04:41 82° WSW 21:08:24 10° NNW visible
21 Sep ? 20:42:44 50° ESE 20:43:13 55° ENE 20:46:50 10° N visible
21 Sep ? 22:17:17 13° W 22:17:17 13° W 22:18:52 10° WNW visible
22 Sep ? 20:21:10 29° E 20:21:48 31° ENE 20:25:06 10° N visible
22 Sep ? 21:55:44 21° W 21:55:44 21° W 21:58:23 10° NW visible
23 Sep ? 19:59:37 18° E 20:00:27 19° ENE 20:03:07 10° NNE visible
23 Sep ? 21:34:10 35° W 21:34:10 35° W 21:37:18 10° NNW visible
24 Sep ? 19:38:03 11° E 19:39:09 12° ENE 19:40:37 10° NE visible
24 Sep ? 21:12:36 62° WNW 21:12:36 62° WNW 21:15:58 10° NNW visible
25 Sep ? 20:51:02 65° NE 20:51:02 65° NE 20:54:27 10° N visible
26 Sep ? 20:29:28 38° ENE 20:29:28 38° ENE 20:32:46 10° N visible
26 Sep ? 22:04:02 16° WNW 22:04:02 16° WNW 22:05:41 10° NW visible
27 Sep ? 20:07:54 23° ENE 20:07:58 23° ENE 20:10:53 10° NNE visible
27 Sep ? 21:42:28 25° WNW 21:42:28 25° WNW 21:44:44 10° NNW visible
28 Sep ? 19:46:19 14° ENE 19:46:38 14° ENE 19:48:38 10° NNE visible
28 Sep ? 21:20:53 38° NW 21:20:53 38° NW 21:23:29 10° NNW visible
29 Sep ? 20:59:19 47° N 20:59:19 47° N 21:02:01 10° NNW visible
